Content
SEND FEEDBACK

Daily
Averages
Monthly
Summary
Mexico

CANCUN, QUINTANA ROO


Home > North America > Mexico > Quintana Roo
Elevation: 9 meters     Latitude: 21 09N     Longitude: 086 49W

WEATHER
 
SELECT A DAY
Number of Records: 166,596;   Date Range: 1/1/95 - 10/30/14
 
SHARE

PRINT THIS DATA

[ ← Previous Day ]
WEATHER ALMANAC - 8 AUGUST, 2014
[ Next Day → ]
[ °F ]   °C
Weather ElementAverageHighLow
Temperature28.7 °C32 °C (10:44 am)24 °C (4:43 am)
Dewpoint24.4 °C25 °C (1:45 am)23 °C (4:43 am)
Humidity78.2 %94 % (3:43 am)62 % (11:43 am)
Barometer1014.9 hPa1016.3 hPa (10:47 pm)1013.5 hPa (3:43 am)
Wind Speed9 km/h22.2 km/h (12:43 pm)
Weather ElementAverage
Visibility11.3 km
Wind DirectionESE (103.9 °)

Weather ElementTotal
Precipitation---
Cooling Degree Days9.7 (Base 18.3)
Growing Degree Days18 (Base 10)
Averaged from 23 records on 8 August, 2014
WEATHER CONDITIONS BREAKOUT
WIND DIRECTION BREAKOUT
WEATHER BY HOUR - 8 AUGUST, 2014
[ °F ]   °C
Local TimeTemperatureDewpointHumidityBarometerVisibilityWind DirectionWind SpeedGust SpeedPrecipitationEventsConditions
1:45 AM28 °C25 °C84 %1014.9 hPa11.3 kmEast (100°)5.6 km/hPartly Cloudy
2:47 AM27 °C25 °C89 %1014.6 hPa11.3 kmNE (40°)3.7 km/hPartly Cloudy
3:43 AM25 °C24 °C94 %1013.5 hPa11.3 kmCalmPartly Cloudy
4:43 AM24 °C23 °C94 %1014.6 hPa11.3 kmWNW (290°)7.4 km/hPartly Cloudy
5:41 AM24 °C23 °C94 %1014.9 hPa11.3 kmNNW (330°)3.7 km/hScattered Clouds
6:42 AM24 °C23 °C94 %1013.9 hPa11.3 kmWest (280°)5.6 km/hPartly Cloudy
7:42 AM27 °C24 °C84 %1015.9 hPa11.3 kmCalmClear
8:43 AM30 °C25 °C74 %1015.6 hPa11.3 kmNE (40°)7.4 km/hPartly Cloudy
9:42 AM30 °C25 °C74 %1014.9 hPa11.3 kmCalmPartly Cloudy
10:44 AM32 °C25 °C66 %1015.9 hPa11.3 kmSE (140°)13 km/hScattered Clouds
11:43 AM32 °C24 °C62 %1015.6 hPa11.3 kmEast (80°)11.1 km/hScattered Clouds
12:43 PM32 °C25 °C66 %1015.2 hPa11.3 kmESE (110°)22.2 km/hScattered Clouds
1:41 PM32 °C25 °C66 %1014.9 hPa11.3 kmEast (80°)22.2 km/hScattered Clouds
2:41 PM31 °C25 °C70 %1014.6 hPa11.3 kmEast (90°)20.4 km/hMostly Cloudy
3:40 PM30 °C25 °C74 %1013.9 hPa11.3 kmEast (80°)11.1 km/hMostly Cloudy
4:40 PM30 °C24 °C70 %1014.2 hPa11.3 kmEast (90°)11.1 km/hMostly Cloudy
5:41 PM30 °C24 °C70 %1014.6 hPa11.3 kmNE (50°)9.3 km/hMostly Cloudy
6:40 PM30 °C25 °C74 %1013.9 hPa11.3 kmNE (50°)9.3 km/hMostly Cloudy
7:40 PM29 °C24 °C74 %1014.6 hPa11.3 kmEast (100°)5.6 km/hMostly Cloudy
8:43 PM29 °C24 °C74 %1015.2 hPa11.3 kmEast (100°)9.3 km/hScattered Clouds
9:48 PM28 °C25 °C84 %1014.6 hPa11.3 kmESE (120°)9.3 km/hScattered Clouds
10:47 PM28 °C25 °C84 %1016.3 hPa11.3 kmEast (100°)9.3 km/hScattered Clouds
11:46 PM28 °C25 °C84 %1015.9 hPa11.3 kmESE (120°)9.3 km/hScattered Clouds
Hourly data recorded from MMUN, located 0 kilometers away from Cancun, Quintana Roo







STORIES FROM OUR PARTNERS